User: anonymous   Login
Location: Unspecified
(0.0000°N, 0.0000°E)
Time: 12:52:13
(UTC+00:00)
Language:

USA 250 - Orbit

View from above orbital plane
View from above orbital plane
View from above satellite
View from above satellite

Ground track
Ground track

The orbit data is extracted from the following two-line orbital elements,

1 39652U 14020A   17192.85657741 0.00000000  00000-0  00000-0 0    08
2 39652   2.7356 320.2884 0003262 106.7262 253.3314  1.00270000    05
Epoch (UTC): 11 July 2017 20:33:28
Eccentricity: 0.0003262
inclination: 2.7356°
perigee height: 35773 km
apogee height: 35800 km
right ascension of ascending node: 320.2884°
argument of perigee: 106.7262°
revolutions per day: 1.00270000
mean anomaly at epoch: 253.3314°
orbit number at epoch: 0

The dashed part of the orbit path shows where the satellite is in the earth's shadow,  

DLR